Tracking 17884 objects as of 4-December-2016
HD Live streaming from Space Station
objects crossing your sky now

AZUR (GRS A)

Track AZUR (GRS A) now!
10-day predictions
AZUR (GRS A) is classified as:


NORAD ID: 4221
Int'l Code: 1969-097A
Perigee: 364.0 km
Apogee: 1,294.3 km
Inclination: 102.7 °
Period: 101.3 minutes
Semi major axis: 7200 km
RCS: 0.3339 m2 (medium)
Launch date: November 8, 1969
Source: Germany (GER)
Launch site: AIR FORCE WESTERN TEST RANGE (AFWTR)
Your satellite tracking list
Your tracking list is empty





NASA's NSSDC Master Catalog

Two Line Element Set (TLE):
1 04221U 69097A   16338.17538177  .00004400  00000-0  21336-3 0  9996
2 04221 102.6906 109.7743 0646031 257.9798  94.8293 14.21069945221329
Source of the keplerian elements: AFSPC